sat.trackr.live / text

‹ back to catalog

STARLINK-36829

NORAD 67957 · 2026-037AB

PAYLOAD ACTIVE UNKNOWN

§ Identity

Operator
Country
US
Launch date
2026-02-24
Launch site
AFETR
Launch vehicle
Mass (kg)
RCS (m²)

Purposes: comms

External: N2YO · Heavens-Above · Gunter

§ Orbital elements

Epoch: 2026-09-19T03:01:13.740672Z

Period
94.27 min
Inclination
42.9985°
Eccentricity
0.0001146
Mean motion
15.27585595 rev/d
Perigee alt
482.2 km
Apogee alt
483.8 km
Semi-major
6,861.2 km
B*
3.6079e-4
RAAN
178.3522°
Arg perigee
273.8355°
Mean anomaly
86.2365°
Rev number
3,291

§ Raw data

STARLINK-368291 67957U 26037AB  26262.12585348  .00009681  00000+0  36079-3 0  99972 67957  42.9985 178.3522 0001146 273.8355  86.2365 15.27585595 32913

JSON: /api/v1/satellites/67957 · /tle

For live sub-satellite position, see the globe view (requires WebGL).

§ Visibility from observer

Set your observer location to see the next 7 days of passes ≥ 10°. The values pass through the URL so the page stays shareable.

No JS? Fill the form by hand. The geolocation button needs JavaScript.